sat.trackr.live / text

‹ back to catalog

SDA_1682

NORAD 65992 · 2025-230U

PAYLOAD ACTIVE UNKNOWN

§ Identity

Operator
Country
US
Launch date
2025-10-15
Launch site
AFWTR
Launch vehicle
Mass (kg)
RCS (m²)

External: N2YO · Heavens-Above · Gunter

§ Orbital elements

Epoch: 2026-09-20T21:27:35.820576Z

Period
104.49 min
Inclination
81.3009°
Eccentricity
0.0001106
Mean motion
13.78100267 rev/d
Perigee alt
969.8 km
Apogee alt
971.4 km
Semi-major
7,348.8 km
B*
9.1156e-5
RAAN
124.8388°
Arg perigee
53.4004°
Mean anomaly
306.7251°
Rev number
4,694

§ Raw data

SDA_16821 65992U 25230U   26263.89416459  .00000103  00000+0  91156-4 0  99972 65992  81.3009 124.8388 0001106  53.4004 306.7251 13.78100267 46944

JSON: /api/v1/satellites/65992 · /tle

For live sub-satellite position, see the globe view (requires WebGL).

§ Visibility from observer

Set your observer location to see the next 7 days of passes ≥ 10°. The values pass through the URL so the page stays shareable.

No JS? Fill the form by hand. The geolocation button needs JavaScript.